TGM annuale;;;;;;;;;;;;;;;TGM annuale;;;;;;;;;;;;;;;TGM annuale;;;;;;;;;;;;;
Tratta nr.177 SR429, Km 72.500, Empoli (FI) (flussi ascendente/discendente);;;;;;;;;;;;;;;Tratta nr.177 SR429, Km 72.500, Empoli (FI) (flusso ascendente);;;;;;;;;;;;;;;Tratta nr.177 SR429, Km 72.500, Empoli (FI) (flusso discendente);;;;;;;;;;;;;
Anno;01 Motocicli;02 Auto e monovolume;03 Auto e monovolume con rimorchio;04 Furgoncini e camioncini;05 Camion;06 Autotreni;07 Autoarticolati;08 Autobus;09 Veicoli non classificati;Totale;Feriali;Festivi;Prefestivi;;Anno;01 Motocicli;02 Auto e monovolume;03 Auto e monovolume con rimorchio;04 Furgoncini e camioncini;05 Camion;06 Autotreni;07 Autoarticolati;08 Autobus;09 Veicoli non classificati;Totale;Feriali;Festivi;Prefestivi;;Anno;01 Motocicli;02 Auto e monovolume;03 Auto e monovolume con rimorchio;04 Furgoncini e camioncini;05 Camion;06 Autotreni;07 Autoarticolati;08 Autobus;09 Veicoli non classificati;Totale;Feriali;Festivi;Prefestivi
2018;91;4241;6;370;83;16;18;22;0;4846;4970;4350;4854;;2018;56;2020;2;179;39;7;6;10;0;2320;2414;1985;2278;;2018;35;2221;3;190;44;9;11;12;0;2526;2556;2366;2577
;;;;;;;;;;;;;;;;;;;;;;;;;;;;;;;;;;;;;;;;;;;
Tabella flussi 2018;;;;;;;;;;;;;;;Tabella flussi 2018;;;;;;;;;;;;;;;Tabella flussi 2018;;;;;;;;;;;;;
Tratta nr.177 SR429, Km 72.500, Empoli (FI) (flussi ascendente/discendente);;;;;;;;;;;;;;;Tratta nr.177 SR429, Km 72.500, Empoli (FI) (flusso ascendente);;;;;;;;;;;;;;;Tratta nr.177 SR429, Km 72.500, Empoli (FI) (flusso discendente);;;;;;;;;;;;;
;Traffico Totale;;;;;;;;;;Traffico Med.Orario 06:00 - 20:00;Traffico Ora di punta;;;;Traffico Totale;;;;;;;;;;Traffico Med.Orario 06:00 - 20:00;Traffico Ora di punta;;;;Traffico Totale;;;;;;;;;;Traffico Med.Orario 06:00 - 20:00;Traffico Ora di punta;
Giorno;01 Motocicli;02 Auto e monovolume;03 Auto e monovolume con rimorchio;04 Furgoncini e camioncini;05 Camion;06 Autotreni;07 Autoarticolati;08 Autobus;09 Veicoli non classificati;Totale;Totale;Ora di punta;Flusso totale ora di punta;;Giorno;01 Motocicli;02 Auto e monovolume;03 Auto e monovolume con rimorchio;04 Furgoncini e camioncini;05 Camion;06 Autotreni;07 Autoarticolati;08 Autobus;09 Veicoli non classificati;Totale;Totale;Ora di punta;Flusso totale ora di punta;;Giorno;01 Motocicli;02 Auto e monovolume;03 Auto e monovolume con rimorchio;04 Furgoncini e camioncini;05 Camion;06 Autotreni;07 Autoarticolati;08 Autobus;09 Veicoli non classificati;Totale;Totale;Ora di punta;Flusso totale ora di punta
01/01/2018;;;;;;;;;;;;;;;01/01/2018;;;;;;;;;;;;;;;01/01/2018;;;;;;;;;;;;;
02/01/2018;;;;;;;;;;;;;;;02/01/2018;;;;;;;;;;;;;;;02/01/2018;;;;;;;;;;;;;
03/01/2018;49;3775;2;373;82;13;18;27;0;4339;256;17;314;;03/01/2018;37;1800;1;192;40;7;10;12;0;2099;125;14;164;;03/01/2018;12;1975;1;181;42;6;8;15;0;2240;131;18;183
04/01/2018;;;;;;;;;;;;;;;04/01/2018;;;;;;;;;;;;;;;04/01/2018;;;;;;;;;;;;;
05/01/2018;;;;;;;;;;;;;;;05/01/2018;;;;;;;;;;;;;;;05/01/2018;;;;;;;;;;;;;
06/01/2018;;;;;;;;;;;;;;;06/01/2018;;;;;;;;;;;;;;;06/01/2018;;;;;;;;;;;;;
07/01/2018;;;;;;;;;;;;;;;07/01/2018;;;;;;;;;;;;;;;07/01/2018;;;;;;;;;;;;;
08/01/2018;;;;;;;;;;;;;;;08/01/2018;;;;;;;;;;;;;;;08/01/2018;;;;;;;;;;;;;
09/01/2018;;;;;;;;;;;;;;;09/01/2018;;;;;;;;;;;;;;;09/01/2018;;;;;;;;;;;;;
10/01/2018;;;;;;;;;;;;;;;10/01/2018;;;;;;;;;;;;;;;10/01/2018;;;;;;;;;;;;;
11/01/2018;;;;;;;;;;;;;;;11/01/2018;;;;;;;;;;;;;;;11/01/2018;;;;;;;;;;;;;
12/01/2018;;;;;;;;;;;;;;;12/01/2018;;;;;;;;;;;;;;;12/01/2018;;;;;;;;;;;;;
13/01/2018;;;;;;;;;;;;;;;13/01/2018;;;;;;;;;;;;;;;13/01/2018;;;;;;;;;;;;;
14/01/2018;;;;;;;;;;;;;;;14/01/2018;;;;;;;;;;;;;;;14/01/2018;;;;;;;;;;;;;
15/01/2018;;;;;;;;;;;;;;;15/01/2018;;;;;;;;;;;;;;;15/01/2018;;;;;;;;;;;;;
16/01/2018;;;;;;;;;;;;;;;16/01/2018;;;;;;;;;;;;;;;16/01/2018;;;;;;;;;;;;;
17/01/2018;;;;;;;;;;;;;;;17/01/2018;;;;;;;;;;;;;;;17/01/2018;;;;;;;;;;;;;
18/01/2018;;;;;;;;;;;;;;;18/01/2018;;;;;;;;;;;;;;;18/01/2018;;;;;;;;;;;;;
19/01/2018;;;;;;;;;;;;;;;19/01/2018;;;;;;;;;;;;;;;19/01/2018;;;;;;;;;;;;;
20/01/2018;;;;;;;;;;;;;;;20/01/2018;;;;;;;;;;;;;;;20/01/2018;;;;;;;;;;;;;
21/01/2018;;;;;;;;;;;;;;;21/01/2018;;;;;;;;;;;;;;;21/01/2018;;;;;;;;;;;;;
22/01/2018;;;;;;;;;;;;;;;22/01/2018;;;;;;;;;;;;;;;22/01/2018;;;;;;;;;;;;;
23/01/2018;;;;;;;;;;;;;;;23/01/2018;;;;;;;;;;;;;;;23/01/2018;;;;;;;;;;;;;
24/01/2018;70;4235;6;461;116;15;33;25;0;4961;291;17;386;;24/01/2018;53;2043;3;226;56;11;11;12;0;2415;142;8;192;;24/01/2018;17;2192;3;235;60;4;22;13;0;2546;149;18;203
25/01/2018;52;4284;9;447;130;19;36;23;0;5000;287;18;399;;25/01/2018;36;2068;3;221;63;11;6;11;0;2419;142;8;212;;25/01/2018;16;2216;6;226;67;8;30;12;0;2581;145;18;234
26/01/2018;50;4338;4;478;122;19;28;29;0;5068;281;17;356;;26/01/2018;39;2086;0;218;59;8;7;13;0;2430;137;8;196;;26/01/2018;11;2252;4;260;63;11;21;16;0;2638;145;18;197
27/01/2018;73;4419;2;295;54;5;8;25;0;4881;263;17;386;;27/01/2018;43;2082;0;131;33;0;3;13;0;2305;125;17;188;;27/01/2018;30;2337;2;164;21;5;5;12;0;2576;138;17;198
28/01/2018;66;4445;3;118;18;11;1;10;0;4672;251;19;350;;28/01/2018;36;2012;2;53;9;4;1;6;0;2123;116;15;206;;28/01/2018;30;2433;1;65;9;7;0;4;0;2549;135;19;222
29/01/2018;42;4145;2;402;124;21;29;27;0;4792;279;18;368;;29/01/2018;27;1946;1;205;55;6;8;12;0;2260;135;8;214;;29/01/2018;15;2199;1;197;69;15;21;15;0;2532;144;18;226
30/01/2018;55;4077;4;419;123;15;31;27;0;4751;281;19;350;;30/01/2018;39;2029;2;206;60;5;8;14;0;2363;140;8;190;;30/01/2018;16;2048;2;213;63;10;23;13;0;2388;141;19;201
31/01/2018;60;4224;6;455;119;15;30;26;0;4935;288;18;363;;31/01/2018;49;2074;3;210;49;4;8;13;0;2410;140;7;190;;31/01/2018;11;2150;3;245;70;11;22;13;0;2525;148;18;196
01/02/2018;53;4212;2;447;109;15;32;27;0;4897;283;18;366;;01/02/2018;42;2023;0;214;53;6;12;14;0;2364;137;8;196;;01/02/2018;11;2189;2;233;56;9;20;13;0;2533;146;18;209
02/02/2018;61;4408;6;412;128;17;26;25;0;5083;290;18;374;;02/02/2018;55;2128;2;201;69;9;7;12;0;2483;141;7;180;;02/02/2018;6;2280;4;211;59;8;19;13;0;2600;148;18;218
03/02/2018;65;4218;3;217;37;7;3;27;0;4577;245;17;335;;03/02/2018;53;2022;1;98;18;2;0;14;0;2208;118;16;168;;03/02/2018;12;2196;2;119;19;5;3;13;0;2369;127;12;180
04/02/2018;59;3845;3;94;10;8;0;5;0;4024;214;17;334;;04/02/2018;47;1822;1;40;4;2;0;2;0;1918;105;17;177;;04/02/2018;12;2023;2;54;6;6;0;3;0;2106;109;12;192
05/02/2018;61;3874;5;365;115;10;34;23;0;4487;263;18;326;;05/02/2018;50;1894;1;181;60;4;12;12;0;2214;131;8;190;;05/02/2018;11;1980;4;184;55;6;22;11;0;2273;132;19;200
06/02/2018;60;3804;5;415;127;11;20;24;0;4466;265;17;359;;06/02/2018;52;1884;1;202;53;8;3;12;0;2215;132;8;193;;06/02/2018;8;1920;4;213;74;3;17;12;0;2251;133;17;189
07/02/2018;43;3779;5;415;107;23;23;24;0;4419;264;18;339;;07/02/2018;36;1873;2;204;51;15;11;13;0;2205;133;8;192;;07/02/2018;7;1906;3;211;56;8;12;11;0;2214;132;19;197
08/02/2018;39;3976;6;385;122;12;29;24;0;4593;260;18;349;;08/02/2018;34;1941;2;199;55;4;13;12;0;2260;128;8;179;;08/02/2018;5;2035;4;186;67;8;16;12;0;2333;132;18;206
09/02/2018;67;4168;6;437;108;17;15;28;0;4846;267;18;361;;09/02/2018;57;2059;4;222;56;7;4;12;0;2421;133;8;180;;09/02/2018;10;2109;2;215;52;10;11;16;0;2425;134;17;207
10/02/2018;86;4392;3;239;33;4;7;21;0;4785;260;18;330;;10/02/2018;68;2116;1;123;12;0;3;11;0;2334;128;18;161;;10/02/2018;18;2276;2;116;21;4;4;10;0;2451;132;12;177
11/02/2018;72;4180;3;128;8;5;0;5;0;4401;238;11;323;;11/02/2018;47;1949;1;56;0;1;0;3;0;2057;114;11;165;;11/02/2018;25;2231;2;72;8;4;0;2;0;2344;125;19;197
12/02/2018;61;3985;3;391;100;15;24;31;0;4610;268;17;380;;12/02/2018;52;1907;2;186;45;6;11;13;0;2222;130;7;197;;12/02/2018;9;2078;1;205;55;9;13;18;0;2388;138;18;205
13/02/2018;79;3846;8;419;127;8;21;25;0;4533;269;17;348;;13/02/2018;73;1907;4;213;54;3;5;12;0;2271;137;7;203;;13/02/2018;6;1939;4;206;73;5;16;13;0;2262;132;19;198
14/02/2018;80;4163;4;426;110;24;29;29;0;4865;286;18;384;;14/02/2018;68;2054;1;224;56;10;15;13;0;2441;143;17;197;;14/02/2018;12;2109;3;202;54;14;14;16;0;2424;143;18;202
15/02/2018;56;4110;2;408;109;16;21;26;0;4748;271;18;373;;15/02/2018;44;1992;1;200;49;5;7;13;0;2311;132;8;192;;15/02/2018;12;2118;1;208;60;11;14;13;0;2437;139;18;225
16/02/2018;60;4298;8;441;114;10;28;22;0;4981;284;18;380;;16/02/2018;50;2126;3;222;54;7;9;11;0;2482;140;14;196;;16/02/2018;10;2172;5;219;60;3;19;11;0;2499;144;18;220
17/02/2018;43;4004;4;235;32;10;3;21;0;4352;235;19;281;;17/02/2018;37;1899;2;124;17;9;1;10;0;2099;116;16;157;;17/02/2018;6;2105;2;111;15;1;2;11;0;2253;119;11;160
18/02/2018;71;3797;1;110;10;4;0;12;0;4005;215;12;338;;18/02/2018;60;1798;0;44;5;2;0;5;0;1914;105;16;150;;18/02/2018;11;1999;1;66;5;2;0;7;0;2091;110;12;195
19/02/2018;84;3748;3;411;120;17;35;27;0;4445;260;18;325;;19/02/2018;73;1840;1;210;62;7;11;12;0;2216;131;8;193;;19/02/2018;11;1908;2;201;58;10;24;15;0;2229;129;19;186
20/02/2018;94;3915;8;425;105;18;31;23;0;4619;274;18;399;;20/02/2018;81;1928;4;211;55;8;10;8;0;2305;137;8;177;;20/02/2018;13;1987;4;214;50;10;21;15;0;2314;138;18;236
21/02/2018;67;3863;5;417;110;17;36;30;0;4545;270;17;378;;21/02/2018;57;1893;2;206;58;4;12;12;0;2244;133;7;183;;21/02/2018;10;1970;3;211;52;13;24;18;0;2301;137;17;201
22/02/2018;73;4048;5;387;122;19;23;24;0;4701;272;17;357;;22/02/2018;70;2000;4;200;62;10;6;10;0;2362;138;8;191;;22/02/2018;3;2048;1;187;60;9;17;14;0;2339;135;18;202
23/02/2018;90;4233;6;443;119;19;35;28;0;4973;284;18;376;;23/02/2018;83;2178;4;230;71;12;17;12;0;2607;149;8;194;;23/02/2018;7;2055;2;213;48;7;18;16;0;2366;134;18;199
24/02/2018;116;4093;2;226;35;9;1;31;0;4513;242;17;322;;24/02/2018;91;1954;1;121;16;4;1;9;0;2197;117;17;160;;24/02/2018;25;2139;1;105;19;5;0;22;0;2316;125;14;176
25/02/2018;59;2985;5;96;13;5;1;4;0;3168;169;12;284;;25/02/2018;49;1367;3;41;7;2;0;0;0;1469;82;12;126;;25/02/2018;10;1618;2;55;6;3;1;4;0;1699;87;12;158
26/02/2018;75;3494;4;342;72;16;23;26;0;4052;244;8;317;;26/02/2018;66;1730;1;176;33;5;7;13;0;2031;124;8;189;;26/02/2018;9;1764;3;166;39;11;16;13;0;2021;121;18;194
27/02/2018;52;3677;5;408;115;17;29;20;0;4323;259;18;332;;27/02/2018;40;1803;1;200;56;6;9;10;0;2125;129;8;194;;27/02/2018;12;1874;4;208;59;11;20;10;0;2198;131;19;197
28/02/2018;44;3803;5;396;104;15;26;27;0;4420;267;17;362;;28/02/2018;36;1850;1;189;47;8;9;11;0;2151;132;7;165;;28/02/2018;8;1953;4;207;57;7;17;16;0;2269;135;17;203
01/03/2018;51;2174;1;182;51;4;13;20;0;2496;144;14;199;;01/03/2018;46;1062;0;87;27;1;0;8;0;1231;72;14;99;;01/03/2018;5;1112;1;95;24;3;13;12;0;1265;71;18;104
02/03/2018;41;4021;5;383;124;30;70;30;0;4704;274;18;342;;02/03/2018;35;1947;2;182;32;12;13;15;0;2238;129;7;183;;02/03/2018;6;2074;3;201;92;18;57;15;0;2466;145;18;199
03/03/2018;47;3702;4;229;46;8;5;22;0;4063;218;11;272;;03/03/2018;40;1821;0;116;23;4;1;12;0;2017;108;17;140;;03/03/2018;7;1881;4;113;23;4;4;10;0;2046;110;11;160
04/03/2018;54;4278;5;110;10;8;1;8;0;4474;250;16;360;;04/03/2018;40;1975;2;47;3;3;0;4;0;2074;119;16;184;;04/03/2018;14;2303;3;63;7;5;1;4;0;2400;131;12;199
05/03/2018;60;3919;3;371;104;17;27;27;0;4528;267;17;349;;05/03/2018;51;1895;0;187;57;10;9;13;0;2222;133;7;179;;05/03/2018;9;2024;3;184;47;7;18;14;0;2306;133;18;206
06/03/2018;36;3721;2;383;124;15;28;30;0;4339;256;19;320;;06/03/2018;27;1832;0;192;65;5;11;13;0;2145;128;8;171;;06/03/2018;9;1889;2;191;59;10;17;17;0;2194;128;19;180
07/03/2018;47;3820;7;414;125;15;22;29;0;4479;265;18;354;;07/03/2018;32;1906;5;202;55;4;6;13;0;2223;132;8;198;;07/03/2018;15;1914;2;212;70;11;16;16;0;2256;133;18;200
08/03/2018;55;4143;5;424;101;25;25;31;0;4809;276;18;382;;08/03/2018;34;2055;0;220;47;12;8;15;0;2391;137;7;189;;08/03/2018;21;2088;5;204;54;13;17;16;0;2418;139;18;217
09/03/2018;57;4212;4;457;108;15;21;28;0;4902;277;17;364;;09/03/2018;39;2050;1;212;45;8;9;15;0;2379;136;8;191;;09/03/2018;18;2162;3;245;63;7;12;13;0;2523;142;18;210
10/03/2018;58;4177;3;252;42;6;10;18;0;4566;254;17;324;;10/03/2018;46;1974;0;120;24;1;4;11;0;2180;121;17;169;;10/03/2018;12;2203;3;132;18;5;6;7;0;2386;133;19;180
11/03/2018;43;3362;2;118;12;5;2;8;0;3552;191;12;294;;11/03/2018;36;1614;1;57;4;2;1;2;0;1717;94;16;139;;11/03/2018;7;1748;1;61;8;3;1;6;0;1835;97;12;172
12/03/2018;52;3837;5;397;103;10;39;26;0;4469;268;18;361;;12/03/2018;42;1886;3;196;44;6;10;12;0;2199;133;7;199;;12/03/2018;10;1951;2;201;59;4;29;14;0;2270;135;18;222
13/03/2018;48;3943;4;467;136;23;30;24;0;4675;281;18;372;;13/03/2018;36;1944;1;235;61;9;8;11;0;2305;139;8;191;;13/03/2018;12;1999;3;232;75;14;22;13;0;2370;142;18;216
14/03/2018;41;3946;5;401;92;25;33;26;0;4569;269;17;373;;14/03/2018;30;1954;1;196;46;12;10;12;0;2261;134;17;187;;14/03/2018;11;1992;4;205;46;13;23;14;0;2308;136;18;224
15/03/2018;44;3884;8;430;122;16;14;25;0;4543;261;17;341;;15/03/2018;32;1892;2;204;62;6;6;15;0;2219;128;8;178;;15/03/2018;12;1992;6;226;60;10;8;10;0;2324;133;17;204
16/03/2018;61;4240;7;399;130;11;29;28;0;4905;273;17;342;;16/03/2018;50;2069;3;197;58;4;8;14;0;2403;133;7;178;;16/03/2018;11;2171;4;202;72;7;21;14;0;2502;140;18;198
17/03/2018;31;4151;4;269;36;5;6;22;0;4524;243;10;312;;17/03/2018;23;1957;1;135;18;1;2;13;0;2150;116;10;153;;17/03/2018;8;2194;3;134;18;4;4;9;0;2374;126;17;168
18/03/2018;43;3730;8;99;13;4;0;8;0;3905;207;18;281;;18/03/2018;33;1727;4;39;3;2;0;2;0;1810;98;16;144;;18/03/2018;10;2003;4;60;10;2;0;6;0;2095;109;18;154
19/03/2018;57;4706;2;528;264;70;132;33;0;5792;354;14;576;;19/03/2018;49;2283;0;280;140;34;87;17;0;2890;179;14;298;;19/03/2018;8;2423;2;248;124;36;45;16;0;2902;175;14;278
20/03/2018;82;3897;1;427;120;13;25;29;0;4594;272;19;345;;20/03/2018;73;1886;0;217;59;3;4;11;0;2253;136;8;203;;20/03/2018;9;2011;1;210;61;10;21;18;0;2341;136;19;201
21/03/2018;96;4016;8;402;109;18;21;25;0;4695;277;17;381;;21/03/2018;89;1977;3;192;54;13;7;9;0;2344;141;7;210;;21/03/2018;7;2039;5;210;55;5;14;16;0;2351;137;17;214
22/03/2018;77;3990;10;432;124;17;31;27;0;4708;271;18;377;;22/03/2018;68;1955;5;212;53;9;6;12;0;2320;133;8;190;;22/03/2018;9;2035;5;220;71;8;25;15;0;2388;138;18;224
23/03/2018;69;4190;5;407;113;19;24;26;0;4853;272;17;390;;23/03/2018;55;2057;1;194;55;9;11;15;0;2397;134;8;210;;23/03/2018;14;2133;4;213;58;10;13;11;0;2456;138;17;223
24/03/2018;87;4336;11;269;42;7;2;26;0;4780;261;17;314;;24/03/2018;59;2020;4;125;17;3;1;13;0;2242;123;16;152;;24/03/2018;28;2316;7;144;25;4;1;13;0;2538;138;19;189
25/03/2018;;;;;;;;;;;;;;;25/03/2018;;;;;;;;;;;;;;;25/03/2018;;;;;;;;;;;;;
26/03/2018;;;;;;;;;;;;;;;26/03/2018;;;;;;;;;;;;;;;26/03/2018;;;;;;;;;;;;;
27/03/2018;65;4050;2;471;118;19;23;29;0;4777;280;17;378;;27/03/2018;52;1974;1;243;54;8;5;12;0;2349;139;7;193;;27/03/2018;13;2076;1;228;64;11;18;17;0;2428;141;17;215
28/03/2018;;;;;;;;;;;;;;;28/03/2018;;;;;;;;;;;;;;;28/03/2018;;;;;;;;;;;;;
29/03/2018;;;;;;;;;;;;;;;29/03/2018;;;;;;;;;;;;;;;29/03/2018;;;;;;;;;;;;;
30/03/2018;58;4154;7;451;96;19;16;23;0;4824;268;17;394;;30/03/2018;39;1978;3;194;53;12;2;9;0;2290;129;8;175;;30/03/2018;19;2176;4;257;43;7;14;14;0;2534;139;17;223
31/03/2018;46;4157;2;273;31;12;6;23;0;4550;240;11;332;;31/03/2018;33;1877;0;118;13;8;2;12;0;2063;111;10;152;;31/03/2018;13;2280;2;155;18;4;4;11;0;2487;129;11;189
01/04/2018;74;4320;0;127;7;5;0;3;0;4536;244;11;467;;01/04/2018;41;1929;0;58;2;0;0;0;0;2030;108;11;212;;01/04/2018;33;2391;0;69;5;5;0;3;0;2506;136;12;276
02/04/2018;139;4746;2;198;15;7;2;12;0;5121;283;10;447;;02/04/2018;80;1952;0;93;6;3;1;5;0;2140;118;17;164;;02/04/2018;59;2794;2;105;9;4;1;7;0;2981;165;10;289
03/04/2018;70;4209;4;404;97;15;25;27;0;4851;284;19;363;;03/04/2018;47;2003;0;196;41;7;10;13;0;2317;138;8;172;;03/04/2018;23;2206;4;208;56;8;15;14;0;2534;146;19;206
04/04/2018;48;4675;4;524;122;14;27;36;0;5450;324;17;412;;04/04/2018;37;2432;3;285;61;5;9;15;0;2847;169;8;261;;04/04/2018;11;2243;1;239;61;9;18;21;0;2603;155;17;223
05/04/2018;59;4798;6;518;131;30;31;27;0;5600;329;17;447;;05/04/2018;42;2425;2;280;71;14;6;12;0;2852;167;8;225;;05/04/2018;17;2373;4;238;60;16;25;15;0;2748;162;17;229
06/04/2018;70;4653;4;479;114;18;22;33;0;5393;308;17;403;;06/04/2018;45;2218;2;215;59;5;3;16;0;2563;147;8;217;;06/04/2018;25;2435;2;264;55;13;19;17;0;2830;161;18;251
07/04/2018;118;4397;2;316;50;10;7;22;0;4922;268;17;322;;07/04/2018;60;2074;0;153;25;2;2;10;0;2326;128;14;170;;07/04/2018;58;2323;2;163;25;8;5;12;0;2596;140;11;178
08/04/2018;162;4595;3;169;14;6;1;5;0;4955;270;12;394;;08/04/2018;67;2002;1;73;4;1;0;4;0;2152;119;18;177;;08/04/2018;95;2593;2;96;10;5;1;1;0;2803;151;12;254
09/04/2018;51;4202;7;409;103;24;25;29;0;4850;286;18;378;;09/04/2018;38;2021;4;210;49;13;5;11;0;2351;140;7;201;;09/04/2018;13;2181;3;199;54;11;20;18;0;2499;146;18;245
10/04/2018;53;4392;2;536;127;15;27;33;0;5185;308;17;374;;10/04/2018;36;2148;1;259;62;7;10;14;0;2537;151;8;190;;10/04/2018;17;2244;1;277;65;8;17;19;0;2648;157;18;232
11/04/2018;49;4246;2;444;126;20;22;34;0;4943;289;18;385;;11/04/2018;42;2089;0;221;54;9;8;16;0;2439;143;8;206;;11/04/2018;7;2157;2;223;72;11;14;18;0;2504;146;18;238
12/04/2018;60;4446;1;444;131;16;27;37;0;5162;295;18;406;;12/04/2018;47;2135;1;219;56;7;11;15;0;2491;142;7;185;;12/04/2018;13;2311;0;225;75;9;16;22;0;2671;153;18;248
13/04/2018;57;4708;5;491;124;18;21;29;0;5453;308;19;409;;13/04/2018;37;2225;2;226;54;7;7;15;0;2573;146;8;201;;13/04/2018;20;2483;3;265;70;11;14;14;0;2880;162;18;241
14/04/2018;110;4794;2;302;48;11;9;23;0;5299;285;18;395;;14/04/2018;72;2216;0;135;24;4;3;9;0;2463;134;18;172;;14/04/2018;38;2578;2;167;24;7;6;14;0;2836;151;18;223
15/04/2018;70;4554;10;157;21;6;0;13;0;4831;261;18;347;;15/04/2018;56;2040;3;76;12;3;0;5;0;2195;120;18;159;;15/04/2018;14;2514;7;81;9;3;0;8;0;2636;141;12;209
16/04/2018;59;4869;8;500;121;17;25;29;0;5628;330;17;465;;16/04/2018;38;2353;3;258;55;5;9;14;0;2735;163;17;225;;16/04/2018;21;2516;5;242;66;12;16;15;0;2893;167;18;256
17/04/2018;88;4447;6;471;124;15;26;30;0;5207;304;18;393;;17/04/2018;59;2129;0;231;51;8;4;13;0;2495;147;7;206;;17/04/2018;29;2318;6;240;73;7;22;17;0;2712;157;18;232
18/04/2018;94;4489;2;500;127;18;20;28;0;5278;307;17;411;;18/04/2018;64;2145;1;238;61;10;7;12;0;2538;150;8;215;;18/04/2018;30;2344;1;262;66;8;13;16;0;2740;157;18;234
19/04/2018;107;4633;10;490;133;23;33;24;0;5453;313;18;436;;19/04/2018;73;2268;4;255;59;10;13;11;0;2693;154;19;200;;19/04/2018;34;2365;6;235;74;13;20;13;0;2760;158;18;239
20/04/2018;114;4626;10;480;136;24;22;28;0;5440;299;17;409;;20/04/2018;74;2227;5;228;73;14;3;9;0;2633;146;8;195;;20/04/2018;40;2399;5;252;63;10;19;19;0;2807;153;18;223
21/04/2018;157;4692;10;294;46;14;6;24;0;5243;280;10;328;;21/04/2018;71;2193;5;129;22;2;4;13;0;2439;130;9;172;;21/04/2018;86;2499;5;165;24;12;2;11;0;2804;150;19;210
22/04/2018;147;4548;8;176;16;11;0;6;0;4912;258;19;384;;22/04/2018;78;2056;4;76;7;3;0;3;0;2227;120;19;171;;22/04/2018;69;2492;4;100;9;8;0;3;0;2685;138;19;213
23/04/2018;102;4454;7;462;118;23;32;27;0;5225;306;17;415;;23/04/2018;61;2092;3;222;60;12;11;12;0;2473;145;17;203;;23/04/2018;41;2362;4;240;58;11;21;15;0;2752;160;18;238
24/04/2018;94;4487;4;572;143;15;29;26;0;5370;311;19;444;;24/04/2018;47;2208;3;278;72;8;10;10;0;2636;154;19;202;;24/04/2018;47;2279;1;294;71;7;19;16;0;2734;158;17;243
25/04/2018;169;4427;1;193;30;13;4;4;0;4841;268;11;380;;25/04/2018;72;1892;0;87;15;3;3;1;0;2073;115;17;171;;25/04/2018;97;2535;1;106;15;10;1;3;0;2768;153;11;239
26/04/2018;115;4626;13;473;144;20;17;26;0;5434;312;18;416;;26/04/2018;64;2223;4;236;69;9;2;12;0;2619;151;7;200;;26/04/2018;51;2403;9;237;75;11;15;14;0;2815;161;18;245
27/04/2018;101;4623;9;523;98;23;25;29;0;5431;304;18;413;;27/04/2018;51;2240;6;245;44;10;10;12;0;2618;147;7;198;;27/04/2018;50;2383;3;278;54;13;15;17;0;2813;157;18;242
28/04/2018;165;4821;15;349;69;13;11;26;0;5469;300;18;356;;28/04/2018;51;2112;4;147;37;5;5;12;0;2373;131;17;168;;28/04/2018;114;2709;11;202;32;8;6;14;0;3096;169;10;208
29/04/2018;167;4700;13;192;22;13;1;11;0;5119;273;10;384;;29/04/2018;74;2068;7;91;8;9;0;2;0;2259;119;10;179;;29/04/2018;93;2632;6;101;14;4;1;9;0;2860;154;12;232
30/04/2018;164;4657;9;449;89;19;20;26;0;5433;307;18;434;;30/04/2018;90;2184;5;214;38;11;7;11;0;2560;145;18;193;;30/04/2018;74;2473;4;235;51;8;13;15;0;2873;162;18;241
01/05/2018;78;4110;14;198;16;15;3;7;0;4441;254;12;381;;01/05/2018;55;1861;2;98;4;3;0;2;0;2025;117;12;184;;01/05/2018;23;2249;12;100;12;12;3;5;0;2416;137;12;197
02/05/2018;55;4388;6;483;98;20;32;36;0;5118;301;17;391;;02/05/2018;41;2117;0;223;51;11;12;15;0;2470;146;8;211;;02/05/2018;14;2271;6;260;47;9;20;21;0;2648;154;19;227
03/05/2018;76;4678;7;527;120;23;34;31;0;5496;316;18;423;;03/05/2018;65;2270;4;263;58;8;10;13;0;2691;155;8;213;;03/05/2018;11;2408;3;264;62;15;24;18;0;2805;161;18;239
04/05/2018;102;4779;5;488;119;29;17;31;0;5570;310;17;418;;04/05/2018;72;2289;2;224;63;18;6;12;0;2686;152;7;201;;04/05/2018;30;2490;3;264;56;11;11;19;0;2884;158;17;242
05/05/2018;110;4914;8;308;48;6;7;24;0;5425;299;16;380;;05/05/2018;70;2314;3;145;23;3;2;13;0;2573;144;17;198;;05/05/2018;40;2600;5;163;25;3;5;11;0;2852;155;18;197
06/05/2018;99;4375;2;162;16;4;6;9;0;4673;246;12;364;;06/05/2018;54;1981;0;67;7;3;1;3;0;2116;112;17;172;;06/05/2018;45;2394;2;95;9;1;5;6;0;2557;134;19;212
07/05/2018;64;4558;11;449;108;19;22;29;0;5260;305;18;416;;07/05/2018;37;2169;5;216;43;10;8;12;0;2500;147;8;205;;07/05/2018;27;2389;6;233;65;9;14;17;0;2760;158;18;259
08/05/2018;75;4482;5;526;151;18;39;31;0;5327;318;18;403;;08/05/2018;46;2112;4;240;71;10;14;12;0;2509;150;7;185;;08/05/2018;29;2370;1;286;80;8;25;19;0;2818;167;18;244
09/05/2018;52;4459;12;464;117;10;26;25;0;5165;306;17;427;;09/05/2018;38;2178;1;222;58;7;12;14;0;2530;151;8;213;;09/05/2018;14;2281;11;242;59;3;14;11;0;2635;155;18;243
10/05/2018;77;4671;14;458;126;24;36;24;0;5430;309;18;401;;10/05/2018;53;2231;5;219;59;8;12;11;0;2598;149;8;192;;10/05/2018;24;2440;9;239;67;16;24;13;0;2832;160;18;248
11/05/2018;96;4691;7;490;139;20;37;28;0;5508;308;18;403;;11/05/2018;54;2253;1;243;68;10;10;13;0;2652;148;8;200;;11/05/2018;42;2438;6;247;71;10;27;15;0;2856;160;18;233
12/05/2018;118;4787;7;340;44;10;3;22;0;5331;288;18;368;;12/05/2018;71;2236;4;161;22;6;0;9;0;2509;136;10;187;;12/05/2018;47;2551;3;179;22;4;3;13;0;2822;152;18;195
13/05/2018;150;4412;5;167;23;9;1;8;0;4775;251;12;387;;13/05/2018;76;1985;1;78;13;4;0;1;0;2158;115;10;175;;13/05/2018;74;2427;4;89;10;5;1;7;0;2617;136;12;239
14/05/2018;47;4374;11;453;109;18;24;19;0;5055;294;17;389;;14/05/2018;31;2096;5;220;50;8;7;9;0;2426;143;8;204;;14/05/2018;16;2278;6;233;59;10;17;10;0;2629;152;19;211
15/05/2018;120;4411;9;526;137;12;19;24;0;5258;308;19;415;;15/05/2018;45;2047;3;269;61;7;7;11;0;2450;146;8;201;;15/05/2018;75;2364;6;257;76;5;12;13;0;2808;162;19;284
16/05/2018;69;4502;6;524;93;23;15;30;0;5262;310;17;414;;16/05/2018;46;2155;1;265;50;15;5;16;0;2553;151;8;210;;16/05/2018;23;2347;5;259;43;8;10;14;0;2709;159;19;233
17/05/2018;78;4445;5;473;116;18;29;26;0;5190;297;17;377;;17/05/2018;49;2162;2;231;58;7;10;10;0;2529;145;8;197;;17/05/2018;29;2283;3;242;58;11;19;16;0;2661;153;18;209
18/05/2018;120;4677;11;452;123;16;29;27;0;5455;308;18;419;;18/05/2018;62;2213;8;217;58;8;14;14;0;2594;147;8;199;;18/05/2018;58;2464;3;235;65;8;15;13;0;2861;161;18;243
19/05/2018;158;4678;4;349;60;16;11;24;0;5300;287;11;342;;19/05/2018;82;2114;0;156;22;10;6;11;0;2401;132;18;157;;19/05/2018;76;2564;4;193;38;6;5;13;0;2899;155;19;204
20/05/2018;144;4377;4;134;19;5;2;10;0;4695;242;19;325;;20/05/2018;81;1977;0;63;9;2;0;4;0;2136;110;16;155;;20/05/2018;63;2400;4;71;10;3;2;6;0;2559;133;12;195
21/05/2018;64;4346;9;432;103;18;28;35;0;5035;293;17;370;;21/05/2018;46;2021;3;207;44;9;11;17;0;2358;139;8;187;;21/05/2018;18;2325;6;225;59;9;17;18;0;2677;154;18;217
22/05/2018;48;4315;5;435;116;23;28;31;0;5001;293;18;396;;22/05/2018;36;2059;3;207;58;9;8;13;0;2393;142;8;175;;22/05/2018;12;2256;2;228;58;14;20;18;0;2608;151;18;235
23/05/2018;105;4569;7;457;96;26;19;33;0;5312;312;17;454;;23/05/2018;61;2211;5;232;42;9;3;14;0;2577;153;17;211;;23/05/2018;44;2358;2;225;54;17;16;19;0;2735;159;17;243
24/05/2018;95;4516;6;498;115;28;36;31;0;5325;309;18;407;;24/05/2018;48;2204;1;238;54;14;14;14;0;2587;151;7;195;;24/05/2018;47;2312;5;260;61;14;22;17;0;2738;158;18;242
25/05/2018;124;4639;10;459;107;21;29;25;0;5414;305;17;459;;25/05/2018;79;2232;5;227;56;12;9;10;0;2630;150;8;208;;25/05/2018;45;2407;5;232;51;9;20;15;0;2784;156;17;255